This demonstration page uses our WeatherBlox Daily Observations layout. Learn more.

Left ArrowRight Arrow

39.08367, -84.50855

Hourly Observations for March 28, 2020

Temp ( °F °C ) Dew Point ( °F °C ) Humidity (%) Winds ( mph kmh ) Pressure ( in mb ) Visibility ( mi km ) Precip ( " mm )
12:53 am 00:53 Partly Cloudy 59 15 57 13.9 93 93 NE 6 9 29.76 1008 10 16 0.01 0.25
1:53 am 01:53 Mostly Clear with Mist and Fog 58 14.4 57 13.9 97 97 N N/A 29.80 1009 6 10 N/A
2:29 am 02:29 Clear with Mist and Fog 57 13.9 57 13.9 100 100 N N/A 29.81 1009 2 3 N/A
2:36 am 02:36 Clear with Mist and Fog 57 13.9 57 13.9 100 100 N N/A 29.81 1009 1 2 N/A
2:53 am 02:53 Mostly Clear with Mist and Fog 57 13.9 57 13.9 100 100 N N/A 29.80 1009 1 2 N/A
3:01 am 03:01 Partly Cloudy with Mist and Fog 57 13.9 57 13.9 100 100 N N/A 29.81 1009 3 5 N/A
3:53 am 03:53 Clear with Mist and Fog 56 13.3 56 13.3 100 100 N N/A 29.77 1008 1 2 N/A
3:55 am 03:55 Mostly Cloudy with Mist and Fog 56 13.3 56 13.3 100 100 N N/A 29.78 1009 1 1 N/A
4:05 am 04:05 Mostly Cloudy with Fog 56 13.3 56 13.3 100 100 N N/A 29.76 1008 0 0 N/A
4:27 am 04:27 Mostly Cloudy with Mist and Fog 57 13.9 57 13.9 100 100 N N/A 29.76 1008 1 2 N/A
4:38 am 04:38 Mostly Cloudy with Mist and Fog 55 12.8 55 12.8 100 100 SW 3 6 29.76 1008 1 1 N/A
4:41 am 04:41 Mostly Clear with Mist and Fog 55 12.8 55 12.8 100 100 WSW 3 6 29.77 1008 2 2 N/A
4:43 am 04:43 Mostly Clear with Mist and Fog 55 12.8 55 12.8 100 100 WSW 3 6 29.77 1008 3 5 N/A
4:53 am 04:53 Clear with Mist and Fog 54 12.2 54 12.2 100 100 N N/A 29.76 1008 2 2 N/A
5:02 am 05:02 Clear with Fog 55 12.8 55 12.8 100 100 N N/A 29.76 1008 1 1 N/A
5:11 am 05:11 Mostly Cloudy with Fog 54 12.2 54 12.2 100 100 N N/A 29.77 1008 1 1 N/A
5:20 am 05:20 Clear with Mist and Fog 54 12.2 54 12.2 100 100 N N/A 29.77 1008 1 1 N/A
5:28 am 05:28 Partly Cloudy with Fog 54 12.2 54 12.2 100 100 N N/A 29.77 1008 1 1 N/A
5:41 am 05:41 Mostly Cloudy with Fog 55 12.8 55 12.8 100 100 N N/A 29.77 1008 0 0 N/A
5:53 am 05:53 Mostly Cloudy with Fog 55 12.8 54 12.2 96 96 N N/A 29.75 1008 0 0 N/A
6:28 am 06:28 Mostly Cloudy with Fog 54 12.2 54 12.2 100 100 N N/A 29.75 1008 0 0 N/A
6:53 am 06:53 Mostly Cloudy with Fog 53 11.7 53 11.7 100 100 NE 3 6 29.75 1008 0 0 N/A
7:08 am 07:08 Mostly Cloudy with Mist and Fog 53 11.7 53 11.7 100 100 N N/A 29.76 1008 1 1 N/A
7:16 am 07:16 Mostly Clear with Fog 54 12.2 54 12.2 100 100 N N/A 29.77 1008 1 2 N/A
7:29 am 07:29 Partly Cloudy with Fog 54 12.2 54 12.2 100 100 N N/A 29.77 1008 3 5 N/A
7:43 am 07:43 Partly Cloudy with Fog 55 12.8 55 12.8 100 100 NE 3 6 29.77 1008 3 4 N/A
7:53 am 07:53 Sunny with Mist and Fog 55 12.8 55 12.8 100 100 N N/A 29.76 1008 4 6 N/A
8:53 am 08:53 Sunny 66 18.9 63 17.2 90 90 SSW 9 15 29.76 1008 10 16 N/A
9:53 am 09:53 Sunny 70 21.1 64 17.8 82 82 S 13 20 29.75 1008 10 16 N/A
10:53 am 10:53 Mostly Sunny 75 23.9 66 18.9 74 74 SSW 8 13 29.76 1008 10 16 N/A
11:53 am 11:53 Partly Cloudy 77 25 65 18.3 66 66 SW 15 24 29.75 1008 10 16 N/A
12:53 pm 12:53 Partly Cloudy 76 24.4 66 18.9 72 72 SSW 15 24 29.76 1008 10 16 N/A
1:53 pm 13:53 Mostly Cloudy 78 25.6 66 18.9 67 67 SW 15 24 29.76 1008 10 16 N/A
2:22 pm 14:22 Mostly Cloudy with Nearby Thunderstorms 78 25.6 66 18.9 67 67 SW 14 22 29.75 1007 10 16 N/A
2:53 pm 14:53 Partly Cloudy 79 26.1 66 18.9 65 65 SSW 14 22 29.74 1007 10 16 N/A
3:53 pm 15:53 Cloudy 79 26.1 66 18.9 65 65 SSW 12 19 29.74 1007 10 16 N/A
4:53 pm 16:53 Mostly Cloudy 79 26.1 66 18.9 65 65 SSW 13 20 29.73 1007 10 16 0.00 0.00
5:53 pm 17:53 Mostly Sunny 78 25.6 65 18.3 64 64 SSW 16 26 29.74 1007 10 16 N/A
6:53 pm 18:53 Mostly Cloudy 77 25 63 17.2 62 62 SSW 13 20 29.75 1008 10 16 N/A
7:53 pm 19:53 Sunny 75 23.9 63 17.2 66 66 SSW 10 17 29.76 1008 10 16 N/A
8:53 pm 20:53 Clear 74 23.3 62 16.7 67 67 S 6 9 29.72 1007 10 16 N/A
9:53 pm 21:53 Clear 70 21.1 62 16.7 76 76 S 8 13 29.75 1008 10 16 N/A
10:53 pm 22:53 Clear 73 22.8 61 16.1 66 66 SSW 12 19 29.75 1007 10 16 N/A
11:43 pm 23:43 Cloudy with Nearby Thunderstorms 71 21.7 62 16.7 73 73 SW 10 17 29.78 1008 10 16 0.01 0.25
11:53 pm 23:53 Cloudy with Nearby Thunderstorms 70 21.1 63 17.2 79 79 SW 12 19 29.79 1009 7 11 0.02 0.51

Powered by AerisWeather